SHT3A EGCC-EGLL

Flight info

Callsign SHT3A
Flight time 0h 37m
Altitude 19000
Route LISTO L612 HON
Aircraft A320/M-SDE3FGHIRWY/LB1

Departure

Time 2026-05-05 21:40
Airport Manchester Airport (EGCC)

Arrival

Time 2026-05-05 22:18
Airport London Heathrow Airport (EGLL)
Time Latitude Longitude Altitude Speed Heading
2026-05-05 20:39 53.36918 -2.28740 255 ft 0 kts 135°
2026-05-05 20:39 53.36920 -2.28743 255 ft 0 kts 135°
2026-05-05 21:26 53.36932 -2.28762 255 ft 3 kts 141°
2026-05-05 21:26 53.36948 -2.28782 255 ft 3 kts 153°
2026-05-05 21:27 53.36967 -2.28795 255 ft 3 kts 166°
2026-05-05 21:27 53.36987 -2.28800 255 ft 3 kts 183°
2026-05-05 21:27 53.37006 -2.28794 255 ft 3 kts 209°
2026-05-05 21:27 53.37016 -2.28783 255 ft 0 kts 226°
2026-05-05 21:30 53.37016 -2.28784 255 ft 1 kts 226°
2026-05-05 21:31 53.36998 -2.28816 255 ft 6 kts 225°
2026-05-05 21:31 53.36961 -2.28878 255 ft 10 kts 224°
2026-05-05 21:31 53.36899 -2.28980 255 ft 13 kts 225°
2026-05-05 21:31 53.36833 -2.29072 255 ft 11 kts 209°
2026-05-05 21:32 53.36758 -2.29115 255 ft 11 kts 186°
2026-05-05 21:32 53.36694 -2.29042 255 ft 12 kts 134°
2026-05-05 21:32 53.36638 -2.28934 255 ft 13 kts 116°
2026-05-05 21:32 53.36589 -2.28804 255 ft 14 kts 120°
2026-05-05 21:33 53.36530 -2.28672 255 ft 15 kts 134°
2026-05-05 21:33 53.36454 -2.28547 255 ft 14 kts 135°
2026-05-05 21:33 53.36400 -2.28487 255 ft 9 kts 161°
2026-05-05 21:33 53.36338 -2.28454 255 ft 10 kts 148°
2026-05-05 21:34 53.36285 -2.28371 255 ft 11 kts 134°
2026-05-05 21:34 53.36229 -2.28276 255 ft 12 kts 135°
2026-05-05 21:34 53.36166 -2.28169 255 ft 14 kts 134°
2026-05-05 21:34 53.36094 -2.28051 255 ft 15 kts 138°
2026-05-05 21:35 53.36006 -2.27923 255 ft 18 kts 140°
2026-05-05 21:35 53.35903 -2.27849 255 ft 16 kts 182°
2026-05-05 21:35 53.35767 -2.27871 248 ft 23 kts 185°
2026-05-05 21:35 53.35639 -2.27894 241 ft 11 kts 186°
2026-05-05 21:36 53.35540 -2.27910 237 ft 17 kts 186°
2026-05-05 21:36 53.35517 -2.27914 238 ft 1 kts 186°
2026-05-05 21:36 53.35503 -2.27917 239 ft 1 kts 186°
2026-05-05 21:36 53.35471 -2.27924 239 ft 10 kts 191°
2026-05-05 21:37 53.35388 -2.28027 237 ft 17 kts 225°
2026-05-05 21:37 53.35295 -2.28181 233 ft 21 kts 225°
2026-05-05 21:37 53.35190 -2.28387 229 ft 25 kts 231°
2026-05-05 21:37 53.35085 -2.28605 229 ft 16 kts 231°
2026-05-05 21:38 53.35011 -2.28748 227 ft 18 kts 226°
2026-05-05 21:38 53.34921 -2.28905 225 ft 15 kts 226°
2026-05-05 21:38 53.34851 -2.29026 219 ft 12 kts 223°
2026-05-05 21:38 53.34770 -2.29070 219 ft 13 kts 180°
2026-05-05 21:39 53.34689 -2.29016 226 ft 9 kts 141°
2026-05-05 21:39 53.34683 -2.28927 223 ft 8 kts 53°
2026-05-05 21:39 53.34689 -2.28914 221 ft 0 kts 51°
2026-05-05 21:40 53.34783 -2.28718 227 ft 55 kts 51°
2026-05-05 21:40 53.35159 -2.27939 235 ft 114 kts 51°
2026-05-05 21:40 53.35752 -2.26698 358 ft 149 kts 52°
2026-05-05 21:40 53.36384 -2.25350 1050 ft 147 kts 51°
2026-05-05 21:41 53.37026 -2.24021 1684 ft 154 kts 52°
2026-05-05 21:41 53.37549 -2.22331 1975 ft 177 kts 78°
2026-05-05 21:41 53.37384 -2.20153 2262 ft 208 kts 114°
2026-05-05 21:41 53.36300 -2.18315 2659 ft 240 kts 143°
2026-05-05 21:42 53.34772 -2.16948 3301 ft 258 kts 164°
2026-05-05 21:42 53.32957 -2.16877 4146 ft 266 kts 187°
2026-05-05 21:42 53.31095 -2.17243 4870 ft 275 kts 187°
2026-05-05 21:42 53.29191 -2.17577 5783 ft 275 kts 186°
2026-05-05 21:43 53.27285 -2.17890 6705 ft 277 kts 187°
2026-05-05 21:43 53.25374 -2.18193 7488 ft 282 kts 186°
2026-05-05 21:43 53.23396 -2.18502 8277 ft 287 kts 187°
2026-05-05 21:43 53.21385 -2.18813 9068 ft 293 kts 186°
2026-05-05 21:44 53.19344 -2.19128 9874 ft 297 kts 187°
2026-05-05 21:44 53.17252 -2.19453 10380 ft 311 kts 186°
2026-05-05 21:44 53.15004 -2.19454 10587 ft 336 kts 175°
2026-05-05 21:44 53.12656 -2.18660 10956 ft 351 kts 163°
2026-05-05 21:45 53.10362 -2.17148 11577 ft 357 kts 158°
2026-05-05 21:45 53.08092 -2.15560 12266 ft 360 kts 158°
2026-05-05 21:45 53.05768 -2.13952 13001 ft 363 kts 159°
2026-05-05 21:45 53.03431 -2.12346 13717 ft 366 kts 159°
2026-05-05 21:46 53.01074 -2.10730 14404 ft 368 kts 159°
2026-05-05 21:46 52.98703 -2.09104 15009 ft 370 kts 158°
2026-05-05 21:46 52.96315 -2.07467 15640 ft 372 kts 159°
2026-05-05 21:46 52.93913 -2.05821 16256 ft 375 kts 159°
2026-05-05 21:47 52.91496 -2.04163 16859 ft 377 kts 159°
2026-05-05 21:47 52.89094 -2.02513 17477 ft 380 kts 159°
2026-05-05 21:47 52.86644 -2.00831 18117 ft 382 kts 159°
2026-05-05 21:47 52.84175 -1.99142 18701 ft 385 kts 160°
2026-05-05 21:48 52.81689 -1.97442 18975 ft 387 kts 160°
2026-05-05 21:48 52.79186 -1.95732 19038 ft 395 kts 160°
2026-05-05 21:48 52.76619 -1.93982 19049 ft 401 kts 160°
2026-05-05 21:48 52.74034 -1.92223 19030 ft 402 kts 159°
2026-05-05 21:49 52.71446 -1.90465 19040 ft 402 kts 159°
2026-05-05 21:49 52.68859 -1.88711 19043 ft 402 kts 159°
2026-05-05 21:49 52.66271 -1.86958 19036 ft 402 kts 159°
2026-05-05 21:49 52.63718 -1.85230 19033 ft 402 kts 159°
2026-05-05 21:50 52.61131 -1.83478 19032 ft 402 kts 159°
2026-05-05 21:50 52.58545 -1.81728 19031 ft 402 kts 159°
2026-05-05 21:50 52.55959 -1.79979 19028 ft 402 kts 159°
2026-05-05 21:50 52.53373 -1.78236 19031 ft 402 kts 159°
2026-05-05 21:51 52.50783 -1.76496 19023 ft 402 kts 160°
2026-05-05 21:51 52.48198 -1.74759 19026 ft 402 kts 159°
2026-05-05 21:51 52.45611 -1.73025 19032 ft 402 kts 159°
2026-05-05 21:51 52.43056 -1.71318 19032 ft 402 kts 160°
2026-05-05 21:52 52.37884 -1.67858 19038 ft 402 kts 158°
2026-05-05 21:52 52.35410 -1.65707 19038 ft 404 kts 148°
2026-05-05 21:52 52.33186 -1.62881 19038 ft 406 kts 140°
2026-05-05 21:53 52.31064 -1.59848 19038 ft 406 kts 141°
2026-05-05 21:53 52.28931 -1.56827 19039 ft 406 kts 141°
2026-05-05 21:53 52.26792 -1.53816 19028 ft 406 kts 140°
2026-05-05 21:53 52.24681 -1.50859 19033 ft 405 kts 141°
2026-05-05 21:54 52.22542 -1.47866 19035 ft 405 kts 141°
2026-05-05 21:54 52.20405 -1.44876 19038 ft 405 kts 141°
2026-05-05 21:54 52.18268 -1.41888 19043 ft 405 kts 141°
2026-05-05 21:54 52.16134 -1.38905 19043 ft 404 kts 141°
2026-05-05 21:55 52.14005 -1.35931 18941 ft 400 kts 141°
2026-05-05 21:55 52.11926 -1.33025 18698 ft 389 kts 141°
2026-05-05 21:55 52.09899 -1.30195 18456 ft 379 kts 141°
2026-05-05 21:55 52.08584 -1.28362 18281 ft 373 kts 141°
2026-05-05 21:56 52.05994 -1.24769 17632 ft 368 kts 141°
2026-05-05 21:56 52.04057 -1.22087 17137 ft 365 kts 141°
2026-05-05 21:56 52.02131 -1.19429 16626 ft 362 kts 141°
2026-05-05 21:56 52.00219 -1.16798 16127 ft 359 kts 141°
2026-05-05 21:57 51.98958 -1.15064 15808 ft 358 kts 140°
2026-05-05 21:57 51.97064 -1.12451 15317 ft 357 kts 140°
2026-05-05 21:57 51.95180 -1.09846 14789 ft 356 kts 140°
2026-05-05 21:57 51.93272 -1.07210 14018 ft 364 kts 140°
2026-05-05 21:58 51.91376 -1.04597 13867 ft 351 kts 140°
2026-05-05 21:58 51.88965 -1.01284 13691 ft 335 kts 140°
2026-05-05 21:58 51.87230 -0.98900 13548 ft 317 kts 140°
2026-05-05 21:58 51.85660 -0.96562 13405 ft 297 kts 131°
2026-05-05 21:59 51.84868 -0.94799 13218 ft 289 kts 120°
2026-05-05 21:59 51.83969 -0.91926 12782 ft 286 kts 116°
2026-05-05 21:59 51.83100 -0.89058 12522 ft 283 kts 115°
2026-05-05 21:59 51.82237 -0.86218 12229 ft 282 kts 115°
2026-05-05 22:00 51.81370 -0.83389 11930 ft 280 kts 115°
2026-05-05 22:00 51.80224 -0.79655 11530 ft 279 kts 115°
2026-05-05 22:00 51.79645 -0.77767 11378 ft 276 kts 115°
2026-05-05 22:00 51.78794 -0.74998 11104 ft 275 kts 115°
2026-05-05 22:01 51.77945 -0.72242 10826 ft 273 kts 115°
2026-05-05 22:01 51.77111 -0.69541 10562 ft 272 kts 115°
2026-05-05 22:01 51.76268 -0.66811 10294 ft 271 kts 115°
2026-05-05 22:01 51.75426 -0.64091 10044 ft 273 kts 115°
2026-05-05 22:02 51.74578 -0.61349 9870 ft 273 kts 115°
2026-05-05 22:02 51.73731 -0.58610 9738 ft 273 kts 115°
2026-05-05 22:02 51.72886 -0.55875 9643 ft 272 kts 115°
2026-05-05 22:02 51.71882 -0.53304 9505 ft 272 kts 133°
2026-05-05 22:03 51.70324 -0.51605 9373 ft 272 kts 160°
2026-05-05 22:03 51.68500 -0.51172 9178 ft 270 kts 187°
2026-05-05 22:03 51.66728 -0.52036 9049 ft 266 kts 213°
2026-05-05 22:03 51.65378 -0.54000 8976 ft 261 kts 238°
2026-05-05 22:04 51.64669 -0.56646 8978 ft 258 kts 262°
2026-05-05 22:04 51.64684 -0.59489 8979 ft 254 kts 286°
2026-05-05 22:04 51.65307 -0.62133 8980 ft 253 kts 296°
2026-05-05 22:04 51.66062 -0.64692 8983 ft 253 kts 298°
2026-05-05 22:05 51.66846 -0.67223 8978 ft 253 kts 298°
2026-05-05 22:05 51.67636 -0.69755 8980 ft 253 kts 298°
2026-05-05 22:05 51.68421 -0.72244 8981 ft 252 kts 302°
2026-05-05 22:05 51.69560 -0.74354 8980 ft 250 kts 324°
2026-05-05 22:06 51.71111 -0.75566 8985 ft 249 kts 347°
2026-05-05 22:06 51.72773 -0.75704 8985 ft 250 kts
2026-05-05 22:06 51.74403 -0.74733 8996 ft 253 kts 32°
2026-05-05 22:06 51.75669 -0.72763 8883 ft 255 kts 55°
2026-05-05 22:07 51.76324 -0.70111 8576 ft 258 kts 80°
2026-05-05 22:07 51.76240 -0.67231 8270 ft 260 kts 104°
2026-05-05 22:07 51.75576 -0.64517 8027 ft 261 kts 112°
2026-05-05 22:07 51.74833 -0.61739 7982 ft 281 kts 112°
2026-05-05 22:08 51.74050 -0.58826 7999 ft 285 kts 112°
2026-05-05 22:08 51.72999 -0.56132 8036 ft 287 kts 135°
2026-05-05 22:08 51.71319 -0.54428 8027 ft 286 kts 162°
2026-05-05 22:08 51.69408 -0.54130 7999 ft 270 kts 191°
2026-05-05 22:09 51.67738 -0.55225 8003 ft 254 kts 216°
2026-05-05 22:09 51.66321 -0.56938 8005 ft 260 kts 220°
2026-05-05 22:09 51.64882 -0.58839 7995 ft 272 kts 225°
2026-05-05 22:09 51.63717 -0.61213 8002 ft 271 kts 239°
2026-05-05 22:10 51.62737 -0.63765 7991 ft 271 kts 241°
2026-05-05 22:10 51.61771 -0.66353 7707 ft 269 kts 241°
2026-05-05 22:10 51.60814 -0.68935 7396 ft 268 kts 241°
2026-05-05 22:10 51.59873 -0.71485 7114 ft 267 kts 241°
2026-05-05 22:11 51.58931 -0.74049 6808 ft 266 kts 241°
2026-05-05 22:11 51.57994 -0.76607 6516 ft 265 kts 241°
2026-05-05 22:11 51.57062 -0.79155 6195 ft 264 kts 241°
2026-05-05 22:11 51.56086 -0.81655 5859 ft 265 kts 230°
2026-05-05 22:12 51.54621 -0.83330 5712 ft 256 kts 199°
2026-05-05 22:12 51.52964 -0.83802 5582 ft 237 kts 183°
2026-05-05 22:12 51.51377 -0.83935 5445 ft 220 kts 181°
2026-05-05 22:12 51.49905 -0.83968 5268 ft 204 kts 170°
2026-05-05 22:13 51.48635 -0.83146 4890 ft 196 kts 138°
2026-05-05 22:13 51.47789 -0.81443 4353 ft 197 kts 108°
2026-05-05 22:13 51.47580 -0.79338 4014 ft 187 kts 87°
2026-05-05 22:13 51.47595 -0.77278 3682 ft 182 kts 87°
2026-05-05 22:14 51.47608 -0.75278 3435 ft 177 kts 87°
2026-05-05 22:14 51.47620 -0.73317 3196 ft 174 kts 87°
2026-05-05 22:14 51.47632 -0.71421 2950 ft 169 kts 88°
2026-05-05 22:14 51.47643 -0.69577 2737 ft 162 kts 88°
2026-05-05 22:15 51.47653 -0.67784 2520 ft 160 kts 88°
2026-05-05 22:15 51.47663 -0.66013 2307 ft 158 kts 88°
2026-05-05 22:15 51.47673 -0.64265 2092 ft 157 kts 88°
2026-05-05 22:15 51.47682 -0.62518 1879 ft 157 kts 89°
2026-05-05 22:16 51.47692 -0.60777 1670 ft 156 kts 89°
2026-05-05 22:16 51.47700 -0.59045 1461 ft 155 kts 89°
2026-05-05 22:16 51.47709 -0.57338 1235 ft 148 kts 89°
2026-05-05 22:16 51.47716 -0.55754 1040 ft 141 kts 89°
2026-05-05 22:17 51.47723 -0.54194 845 ft 139 kts 88°
2026-05-05 22:17 51.47731 -0.52650 630 ft 138 kts 88°
2026-05-05 22:17 51.47735 -0.51107 481 ft 138 kts 88°
2026-05-05 22:17 51.47744 -0.49582 246 ft 136 kts 88°
2026-05-05 22:18 51.47750 -0.48069 92 ft 134 kts 88°
2026-05-05 22:18 51.47759 -0.46810 88 ft 88 kts 90°
2026-05-05 22:18 51.47753 -0.46163 89 ft 34 kts 102°
2026-05-05 22:18 51.47762 -0.45808 84 ft 30 kts 92°
2026-05-05 22:19 51.47747 -0.45522 86 ft 19 kts 127°
2026-05-05 22:19 51.47640 -0.45465 86 ft 15 kts 179°
2026-05-05 22:19 51.47586 -0.45464 86 ft 6 kts 179°
2026-05-05 22:19 51.47551 -0.45464 86 ft 4 kts 182°
2026-05-05 22:20 51.47520 -0.45485 89 ft 7 kts 218°
2026-05-05 22:20 51.47507 -0.45595 90 ft 13 kts 268°
2026-05-05 22:20 51.47514 -0.45778 88 ft 19 kts 279°
2026-05-05 22:20 51.47516 -0.45975 86 ft 17 kts 269°
2026-05-05 22:21 51.47517 -0.46070 86 ft 0 kts 271°
2026-05-05 22:21 51.47517 -0.46071 86 ft 1 kts 271°
2026-05-05 22:21 51.47517 -0.46136 86 ft 10 kts 270°
2026-05-05 22:22 51.47517 -0.46232 86 ft 8 kts 269°
2026-05-05 22:22 51.47516 -0.46309 86 ft 6 kts 269°
2026-05-05 22:22 51.47515 -0.46406 86 ft 12 kts 269°
2026-05-05 22:22 51.47514 -0.46527 86 ft 10 kts 270°
2026-05-05 22:23 51.47515 -0.46646 86 ft 15 kts 270°
2026-05-05 22:23 51.47495 -0.46809 89 ft 14 kts 263°
2026-05-05 22:23 51.47493 -0.46953 86 ft 12 kts 269°
2026-05-05 22:23 51.47491 -0.47075 86 ft 10 kts 269°
2026-05-05 22:24 51.47491 -0.47213 86 ft 15 kts 270°
2026-05-05 22:24 51.47491 -0.47366 86 ft 13 kts 270°
2026-05-05 22:24 51.47490 -0.47498 86 ft 11 kts 269°
2026-05-05 22:24 51.47490 -0.47670 86 ft 18 kts 270°
2026-05-05 22:25 51.47489 -0.47866 86 ft 17 kts 269°
2026-05-05 22:25 51.47488 -0.48039 86 ft 15 kts 269°
2026-05-05 22:25 51.47488 -0.48194 86 ft 13 kts 270°
2026-05-05 22:25 51.47488 -0.48329 86 ft 11 kts 269°
2026-05-05 22:26 51.47487 -0.48443 87 ft 9 kts 271°
2026-05-05 22:26 51.47487 -0.48536 89 ft 8 kts 269°
2026-05-05 22:26 51.47486 -0.48649 89 ft 10 kts 269°
2026-05-05 22:26 51.47481 -0.48744 90 ft 7 kts 236°
2026-05-05 22:27 51.47441 -0.48758 87 ft 5 kts 180°
2026-05-05 22:27 51.47413 -0.48758 86 ft 3 kts 180°
2026-05-05 22:27 51.47398 -0.48758 86 ft 0 kts 179°
2026-05-05 22:28 51.47396 -0.48758 86 ft 0 kts 179°